owner,sensor,date,latitude,longitude,relative_humidity,qcFlag 
COMPS,ioos:station:USF.COMPS:SHP:1,2015-02-01T00:00:00Z,30.0600,-84.2910,53.31,1111122 
COMPS,ioos:station:USF.COMPS:SHP:1,2015-02-01T00:06:00Z,30.0600,-84.2910,52.91,1111122 
COMPS,ioos:station:USF.COMPS:SHP:1,2015-02-01T00:12:00Z,30.0600,-84.2910,50.74,1111122 
COMPS,ioos:station:USF.COMPS:SHP:1,2015-02-01T00:18:00Z,30.0600,-84.2910,52.74,1111122 
COMPS,ioos:station:USF.COMPS:SHP:1,2015-02-01T00:24:00Z,30.0600,-84.2910,51.52,1111122 
COMPS,ioos:station:USF.COMPS:SHP:1,2015-02-01T00:30:00Z,30.0600,-84.2910,52.73,1111122 
COMPS,ioos:station:USF.COMPS:SHP:1,2015-02-01T00:36:00Z,30.0600,-84.2910,54.54,1111122 
COMPS,ioos:station:USF.COMPS:SHP:1,2015-02-01T00:42:00Z,30.0600,-84.2910,55.54,1111122 
COMPS,ioos:station:USF.COMPS:SHP:1,2015-02-01T00:48:00Z,30.0600,-84.2910,56.44,1111122 
COMPS,ioos:station:USF.COMPS:SHP:1,2015-02-01T00:54:00Z,30.0600,-84.2910,55.64,1111122 
COMPS,ioos:station:USF.COMPS:SHP:1,2015-02-01T01:00:00Z,30.0600,-84.2910,58.1,1111122 
COMPS,ioos:station:USF.COMPS:SHP:1,2015-02-01T01:06:00Z,30.0600,-84.2910,59.16,1111122 
COMPS,ioos:station:USF.COMPS:SHP:1,2015-02-01T01:12:00Z,30.0600,-84.2910,58.92,1111122 
COMPS,ioos:station:USF.COMPS:SHP:1,2015-02-01T01:18:00Z,30.0600,-84.2910,59.26,1111122 
COMPS,ioos:station:USF.COMPS:SHP:1,2015-02-01T01:24:00Z,30.0600,-84.2910,59.23,1111122 
COMPS,ioos:station:USF.COMPS:SHP:1,2015-02-01T01:30:00Z,30.0600,-84.2910,60.19,1111122 
COMPS,ioos:station:USF.COMPS:SHP:1,2015-02-01T01:36:00Z,30.0600,-84.2910,62.86,1111122 
COMPS,ioos:station:USF.COMPS:SHP:1,2015-02-01T01:42:00Z,30.0600,-84.2910,59.7,1111122 
COMPS,ioos:station:USF.COMPS:SHP:1,2015-02-01T01:48:00Z,30.0600,-84.2910,59.71,1111122 
COMPS,ioos:station:USF.COMPS:SHP:1,2015-02-01T01:54:00Z,30.0600,-84.2910,59.72,1111122 
COMPS,ioos:station:USF.COMPS:SHP:1,2015-02-01T02:00:00Z,30.0600,-84.2910,59.38,1111122 
COMPS,ioos:station:USF.COMPS:SHP:1,2015-02-01T02:06:00Z,30.0600,-84.2910,58.53,1111122 
COMPS,ioos:station:USF.COMPS:SHP:1,2015-02-01T02:12:00Z,30.0600,-84.2910,59.02,1111122 
COMPS,ioos:station:USF.COMPS:SHP:1,2015-02-01T02:18:00Z,30.0600,-84.2910,56.75,1111122 
COMPS,ioos:station:USF.COMPS:SHP:1,2015-02-01T02:24:00Z,30.0600,-84.2910,56.03,1111122 
COMPS,ioos:station:USF.COMPS:SHP:1,2015-02-01T02:30:00Z,30.0600,-84.2910,58.3,1111122 
COMPS,ioos:station:USF.COMPS:SHP:1,2015-02-01T02:36:00Z,30.0600,-84.2910,62.47,1111122 
COMPS,ioos:station:USF.COMPS:SHP:1,2015-02-01T02:42:00Z,30.0600,-84.2910,65.21,1111122 
COMPS,ioos:station:USF.COMPS:SHP:1,2015-02-01T02:48:00Z,30.0600,-84.2910,65.4,1111122 
COMPS,ioos:station:USF.COMPS:SHP:1,2015-02-01T02:54:00Z,30.0600,-84.2910,64.76,1111122 
COMPS,ioos:station:USF.COMPS:SHP:1,2015-02-01T03:00:00Z,30.0600,-84.2910,63.79,1111122 
COMPS,ioos:station:USF.COMPS:SHP:1,2015-02-01T03:06:00Z,30.0600,-84.2910,65.23,1111122 
COMPS,ioos:station:USF.COMPS:SHP:1,2015-02-01T03:12:00Z,30.0600,-84.2910,66.95,1111122 
COMPS,ioos:station:USF.COMPS:SHP:1,2015-02-01T03:18:00Z,30.0600,-84.2910,67.37,1111122 
COMPS,ioos:station:USF.COMPS:SHP:1,2015-02-01T03:24:00Z,30.0600,-84.2910,68.96,1111122 
COMPS,ioos:station:USF.COMPS:SHP:1,2015-02-01T03:30:00Z,30.0600,-84.2910,67.56,1111122 
COMPS,ioos:station:USF.COMPS:SHP:1,2015-02-01T03:36:00Z,30.0600,-84.2910,62.92,1111122 
COMPS,ioos:station:USF.COMPS:SHP:1,2015-02-01T03:42:00Z,30.0600,-84.2910,63.84,1111122 
COMPS,ioos:station:USF.COMPS:SHP:1,2015-02-01T03:48:00Z,30.0600,-84.2910,66.58,1111122 
COMPS,ioos:station:USF.COMPS:SHP:1,2015-02-01T03:54:00Z,30.0600,-84.2910,66.73,1111122 
COMPS,ioos:station:USF.COMPS:SHP:1,2015-02-01T04:00:00Z,30.0600,-84.2910,69.05,1111122 
COMPS,ioos:station:USF.COMPS:SHP:1,2015-02-01T04:06:00Z,30.0600,-84.2910,69.5,1111122 
COMPS,ioos:station:USF.COMPS:SHP:1,2015-02-01T04:12:00Z,30.0600,-84.2910,71.04,1111122 
COMPS,ioos:station:USF.COMPS:SHP:1,2015-02-01T04:18:00Z,30.0600,-84.2910,72.56,1111122 
COMPS,ioos:station:USF.COMPS:SHP:1,2015-02-01T04:24:00Z,30.0600,-84.2910,71.82,1111122 
COMPS,ioos:station:USF.COMPS:SHP:1,2015-02-01T04:30:00Z,30.0600,-84.2910,71.27,1111122 
COMPS,ioos:station:USF.COMPS:SHP:1,2015-02-01T04:36:00Z,30.0600,-84.2910,72.45,1111122 
COMPS,ioos:station:USF.COMPS:SHP:1,2015-02-01T04:42:00Z,30.0600,-84.2910,72.96,1111122 
COMPS,ioos:station:USF.COMPS:SHP:1,2015-02-01T04:48:00Z,30.0600,-84.2910,72.98,1111122 
COMPS,ioos:station:USF.COMPS:SHP:1,2015-02-01T04:54:00Z,30.0600,-84.2910,74.1,1111122 
COMPS,ioos:station:USF.COMPS:SHP:1,2015-02-01T05:00:00Z,30.0600,-84.2910,73.21,1111122 
COMPS,ioos:station:USF.COMPS:SHP:1,2015-02-01T05:06:00Z,30.0600,-84.2910,73.82,1111122 
COMPS,ioos:station:USF.COMPS:SHP:1,2015-02-01T05:12:00Z,30.0600,-84.2910,74.77,1111122 
COMPS,ioos:station:USF.COMPS:SHP:1,2015-02-01T05:18:00Z,30.0600,-84.2910,75.78,1111122 
COMPS,ioos:station:USF.COMPS:SHP:1,2015-02-01T05:24:00Z,30.0600,-84.2910,76.44,1111122 
COMPS,ioos:station:USF.COMPS:SHP:1,2015-02-01T05:30:00Z,30.0600,-84.2910,75.78,1111122 
COMPS,ioos:station:USF.COMPS:SHP:1,2015-02-01T05:36:00Z,30.0600,-84.2910,76.44,1111122 
COMPS,ioos:station:USF.COMPS:SHP:1,2015-02-01T05:42:00Z,30.0600,-84.2910,76.84,1111122 
COMPS,ioos:station:USF.COMPS:SHP:1,2015-02-01T05:48:00Z,30.0600,-84.2910,76.45,1111122 
COMPS,ioos:station:USF.COMPS:SHP:1,2015-02-01T05:54:00Z,30.0600,-84.2910,76.12,1111122 
COMPS,ioos:station:USF.COMPS:SHP:1,2015-02-01T06:00:00Z,30.0600,-84.2910,76.32,1111122 
COMPS,ioos:station:USF.COMPS:SHP:1,2015-02-01T06:06:00Z,30.0600,-84.2910,77.02,1111122 
COMPS,ioos:station:USF.COMPS:SHP:1,2015-02-01T06:12:00Z,30.0600,-84.2910,77.48,1111122 
COMPS,ioos:station:USF.COMPS:SHP:1,2015-02-01T06:18:00Z,30.0600,-84.2910,77.34,1111122 
COMPS,ioos:station:USF.COMPS:SHP:1,2015-02-01T06:24:00Z,30.0600,-84.2910,77.69,1111122 
COMPS,ioos:station:USF.COMPS:SHP:1,2015-02-01T06:30:00Z,30.0600,-84.2910,77.05,1111122 
COMPS,ioos:station:USF.COMPS:SHP:1,2015-02-01T06:36:00Z,30.0600,-84.2910,77.84,1111122 
COMPS,ioos:station:USF.COMPS:SHP:1,2015-02-01T06:42:00Z,30.0600,-84.2910,78.16,1111122 
COMPS,ioos:station:USF.COMPS:SHP:1,2015-02-01T06:48:00Z,30.0600,-84.2910,77.5,1111122 
COMPS,ioos:station:USF.COMPS:SHP:1,2015-02-01T06:54:00Z,30.0600,-84.2910,77.84,1111122 
COMPS,ioos:station:USF.COMPS:SHP:1,2015-02-01T07:00:00Z,30.0600,-84.2910,78.45,1111122 
COMPS,ioos:station:USF.COMPS:SHP:1,2015-02-01T07:06:00Z,30.0600,-84.2910,78.98,1111122 
COMPS,ioos:station:USF.COMPS:SHP:1,2015-02-01T07:12:00Z,30.0600,-84.2910,77.98,1111122 
COMPS,ioos:station:USF.COMPS:SHP:1,2015-02-01T07:18:00Z,30.0600,-84.2910,78.06,1111122 
COMPS,ioos:station:USF.COMPS:SHP:1,2015-02-01T07:24:00Z,30.0600,-84.2910,78.74,1111122 
COMPS,ioos:station:USF.COMPS:SHP:1,2015-02-01T07:30:00Z,30.0600,-84.2910,79.5,1111122 
COMPS,ioos:station:USF.COMPS:SHP:1,2015-02-01T07:36:00Z,30.0600,-84.2910,79.23,1111122 
COMPS,ioos:station:USF.COMPS:SHP:1,2015-02-01T07:42:00Z,30.0600,-84.2910,79.54,1111122 
COMPS,ioos:station:USF.COMPS:SHP:1,2015-02-01T07:48:00Z,30.0600,-84.2910,79.95,1111122 
COMPS,ioos:station:USF.COMPS:SHP:1,2015-02-01T07:54:00Z,30.0600,-84.2910,80.48,1111122 
COMPS,ioos:station:USF.COMPS:SHP:1,2015-02-01T08:00:00Z,30.0600,-84.2910,80.44,1111122 
COMPS,ioos:station:USF.COMPS:SHP:1,2015-02-01T08:06:00Z,30.0600,-84.2910,79.38,1111122 
COMPS,ioos:station:USF.COMPS:SHP:1,2015-02-01T08:12:00Z,30.0600,-84.2910,78.97,1111122 
COMPS,ioos:station:USF.COMPS:SHP:1,2015-02-01T08:18:00Z,30.0600,-84.2910,79.5,1111122 
COMPS,ioos:station:USF.COMPS:SHP:1,2015-02-01T08:24:00Z,30.0600,-84.2910,79.79,1111122 
COMPS,ioos:station:USF.COMPS:SHP:1,2015-02-01T08:30:00Z,30.0600,-84.2910,79.48,1111122 
COMPS,ioos:station:USF.COMPS:SHP:1,2015-02-01T08:36:00Z,30.0600,-84.2910,79.75,1111122 
COMPS,ioos:station:USF.COMPS:SHP:1,2015-02-01T08:42:00Z,30.0600,-84.2910,80.41,1111122 
COMPS,ioos:station:USF.COMPS:SHP:1,2015-02-01T08:48:00Z,30.0600,-84.2910,79.84,1111122 
COMPS,ioos:station:USF.COMPS:SHP:1,2015-02-01T08:54:00Z,30.0600,-84.2910,79.79,1111122 
COMPS,ioos:station:USF.COMPS:SHP:1,2015-02-01T09:00:00Z,30.0600,-84.2910,80.16,1111122 
COMPS,ioos:station:USF.COMPS:SHP:1,2015-02-01T09:06:00Z,30.0600,-84.2910,80.79,1111122 
COMPS,ioos:station:USF.COMPS:SHP:1,2015-02-01T09:12:00Z,30.0600,-84.2910,81.55,1111122 
COMPS,ioos:station:USF.COMPS:SHP:1,2015-02-01T09:18:00Z,30.0600,-84.2910,81.89,1111122 
COMPS,ioos:station:USF.COMPS:SHP:1,2015-02-01T09:24:00Z,30.0600,-84.2910,82.4,1111122 
COMPS,ioos:station:USF.COMPS:SHP:1,2015-02-01T09:30:00Z,30.0600,-84.2910,82.26,1111122 
COMPS,ioos:station:USF.COMPS:SHP:1,2015-02-01T09:36:00Z,30.0600,-84.2910,83.04,1111122 
COMPS,ioos:station:USF.COMPS:SHP:1,2015-02-01T09:42:00Z,30.0600,-84.2910,83.12,1111122 
COMPS,ioos:station:USF.COMPS:SHP:1,2015-02-01T09:48:00Z,30.0600,-84.2910,83.54,1111122 
COMPS,ioos:station:USF.COMPS:SHP:1,2015-02-01T09:54:00Z,30.0600,-84.2910,83.33,1111122 
COMPS,ioos:station:USF.COMPS:SHP:1,2015-02-01T10:00:00Z,30.0600,-84.2910,83.14,1111122 
COMPS,ioos:station:USF.COMPS:SHP:1,2015-02-01T10:06:00Z,30.0600,-84.2910,83.36,1111122 
COMPS,ioos:station:USF.COMPS:SHP:1,2015-02-01T10:12:00Z,30.0600,-84.2910,83.71,1111122 
COMPS,ioos:station:USF.COMPS:SHP:1,2015-02-01T10:18:00Z,30.0600,-84.2910,83.65,1111122 
COMPS,ioos:station:USF.COMPS:SHP:1,2015-02-01T10:24:00Z,30.0600,-84.2910,82.3,1111122 
COMPS,ioos:station:USF.COMPS:SHP:1,2015-02-01T10:30:00Z,30.0600,-84.2910,82.39,1111122 
COMPS,ioos:station:USF.COMPS:SHP:1,2015-02-01T10:36:00Z,30.0600,-84.2910,85.25,1111122 
COMPS,ioos:station:USF.COMPS:SHP:1,2015-02-01T10:42:00Z,30.0600,-84.2910,87.18,1111122 
COMPS,ioos:station:USF.COMPS:SHP:1,2015-02-01T10:48:00Z,30.0600,-84.2910,87.96,1111122 
COMPS,ioos:station:USF.COMPS:SHP:1,2015-02-01T10:54:00Z,30.0600,-84.2910,88.43,1111122 
COMPS,ioos:station:USF.COMPS:SHP:1,2015-02-01T11:00:00Z,30.0600,-84.2910,89.13,1111122 
COMPS,ioos:station:USF.COMPS:SHP:1,2015-02-01T11:06:00Z,30.0600,-84.2910,89.51,1111122 
COMPS,ioos:station:USF.COMPS:SHP:1,2015-02-01T11:12:00Z,30.0600,-84.2910,89.73,1111122 
COMPS,ioos:station:USF.COMPS:SHP:1,2015-02-01T11:18:00Z,30.0600,-84.2910,90.29,1111122 
COMPS,ioos:station:USF.COMPS:SHP:1,2015-02-01T11:24:00Z,30.0600,-84.2910,90.31,1111122 
COMPS,ioos:station:USF.COMPS:SHP:1,2015-02-01T11:30:00Z,30.0600,-84.2910,90.43,1111122 
COMPS,ioos:station:USF.COMPS:SHP:1,2015-02-01T11:36:00Z,30.0600,-84.2910,90.24,1111122 
COMPS,ioos:station:USF.COMPS:SHP:1,2015-02-01T11:42:00Z,30.0600,-84.2910,90.04,1111122 
COMPS,ioos:station:USF.COMPS:SHP:1,2015-02-01T11:48:00Z,30.0600,-84.2910,90.35,1111122 
COMPS,ioos:station:USF.COMPS:SHP:1,2015-02-01T11:54:00Z,30.0600,-84.2910,90.71,1111122 
COMPS,ioos:station:USF.COMPS:SHP:1,2015-02-01T12:00:00Z,30.0600,-84.2910,90.76,1111122 
COMPS,ioos:station:USF.COMPS:SHP:1,2015-02-01T12:06:00Z,30.0600,-84.2910,90.87,1111122 
COMPS,ioos:station:USF.COMPS:SHP:1,2015-02-01T12:12:00Z,30.0600,-84.2910,90.98,1111122 
COMPS,ioos:station:USF.COMPS:SHP:1,2015-02-01T12:18:00Z,30.0600,-84.2910,91.32,1111122 
COMPS,ioos:station:USF.COMPS:SHP:1,2015-02-01T12:24:00Z,30.0600,-84.2910,91.67,1111122 
COMPS,ioos:station:USF.COMPS:SHP:1,2015-02-01T12:30:00Z,30.0600,-84.2910,92.31,1111122 
COMPS,ioos:station:USF.COMPS:SHP:1,2015-02-01T12:36:00Z,30.0600,-84.2910,92.5,1111122 
COMPS,ioos:station:USF.COMPS:SHP:1,2015-02-01T12:42:00Z,30.0600,-84.2910,91.86,1111122 
COMPS,ioos:station:USF.COMPS:SHP:1,2015-02-01T12:48:00Z,30.0600,-84.2910,91.19,1111122 
COMPS,ioos:station:USF.COMPS:SHP:1,2015-02-01T12:54:00Z,30.0600,-84.2910,90.52,1111122 
COMPS,ioos:station:USF.COMPS:SHP:1,2015-02-01T13:00:00Z,30.0600,-84.2910,90.07,1111122 
COMPS,ioos:station:USF.COMPS:SHP:1,2015-02-01T13:06:00Z,30.0600,-84.2910,89.78,1111122 
COMPS,ioos:station:USF.COMPS:SHP:1,2015-02-01T13:12:00Z,30.0600,-84.2910,90.03,1111122 
COMPS,ioos:station:USF.COMPS:SHP:1,2015-02-01T13:18:00Z,30.0600,-84.2910,89.38,1111122 
COMPS,ioos:station:USF.COMPS:SHP:1,2015-02-01T13:24:00Z,30.0600,-84.2910,89.17,1111122 
COMPS,ioos:station:USF.COMPS:SHP:1,2015-02-01T13:30:00Z,30.0600,-84.2910,89.36,1111122 
COMPS,ioos:station:USF.COMPS:SHP:1,2015-02-01T13:36:00Z,30.0600,-84.2910,89.43,1111122 
COMPS,ioos:station:USF.COMPS:SHP:1,2015-02-01T13:42:00Z,30.0600,-84.2910,89.21,1111122 
COMPS,ioos:station:USF.COMPS:SHP:1,2015-02-01T13:48:00Z,30.0600,-84.2910,88.52,1111122 
COMPS,ioos:station:USF.COMPS:SHP:1,2015-02-01T13:54:00Z,30.0600,-84.2910,87.25,1111122 
COMPS,ioos:station:USF.COMPS:SHP:1,2015-02-01T14:00:00Z,30.0600,-84.2910,86.6,1111122 
COMPS,ioos:station:USF.COMPS:SHP:1,2015-02-01T14:06:00Z,30.0600,-84.2910,85.0,1111122 
COMPS,ioos:station:USF.COMPS:SHP:1,2015-02-01T14:12:00Z,30.0600,-84.2910,84.74,1111122 
COMPS,ioos:station:USF.COMPS:SHP:1,2015-02-01T14:18:00Z,30.0600,-84.2910,85.92,1111122 
COMPS,ioos:station:USF.COMPS:SHP:1,2015-02-01T14:24:00Z,30.0600,-84.2910,85.25,1111122 
COMPS,ioos:station:USF.COMPS:SHP:1,2015-02-01T14:30:00Z,30.0600,-84.2910,84.62,1111122 
COMPS,ioos:station:USF.COMPS:SHP:1,2015-02-01T14:36:00Z,30.0600,-84.2910,84.31,1111122 
COMPS,ioos:station:USF.COMPS:SHP:1,2015-02-01T14:42:00Z,30.0600,-84.2910,84.35,1111122 
COMPS,ioos:station:USF.COMPS:SHP:1,2015-02-01T14:48:00Z,30.0600,-84.2910,84.39,1111122 
COMPS,ioos:station:USF.COMPS:SHP:1,2015-02-01T14:54:00Z,30.0600,-84.2910,84.46,1111122 
COMPS,ioos:station:USF.COMPS:SHP:1,2015-02-01T15:00:00Z,30.0600,-84.2910,83.99,1111122 
COMPS,ioos:station:USF.COMPS:SHP:1,2015-02-01T15:06:00Z,30.0600,-84.2910,84.17,1111122 
COMPS,ioos:station:USF.COMPS:SHP:1,2015-02-01T15:12:00Z,30.0600,-84.2910,83.98,1111122 
COMPS,ioos:station:USF.COMPS:SHP:1,2015-02-01T15:18:00Z,30.0600,-84.2910,83.73,1111122 
COMPS,ioos:station:USF.COMPS:SHP:1,2015-02-01T15:24:00Z,30.0600,-84.2910,83.64,1111122 
COMPS,ioos:station:USF.COMPS:SHP:1,2015-02-01T15:30:00Z,30.0600,-84.2910,83.64,1111122 
COMPS,ioos:station:USF.COMPS:SHP:1,2015-02-01T15:36:00Z,30.0600,-84.2910,83.21,1111122 
COMPS,ioos:station:USF.COMPS:SHP:1,2015-02-01T15:42:00Z,30.0600,-84.2910,83.37,1111122 
COMPS,ioos:station:USF.COMPS:SHP:1,2015-02-01T15:48:00Z,30.0600,-84.2910,83.0,1111122 
COMPS,ioos:station:USF.COMPS:SHP:1,2015-02-01T15:54:00Z,30.0600,-84.2910,82.7,1111122 
COMPS,ioos:station:USF.COMPS:SHP:1,2015-02-01T16:00:00Z,30.0600,-84.2910,82.86,1111122 
COMPS,ioos:station:USF.COMPS:SHP:1,2015-02-01T16:06:00Z,30.0600,-84.2910,83.02,1111122 
COMPS,ioos:station:USF.COMPS:SHP:1,2015-02-01T16:12:00Z,30.0600,-84.2910,82.52,1111122 
COMPS,ioos:station:USF.COMPS:SHP:1,2015-02-01T16:18:00Z,30.0600,-84.2910,82.44,1111122 
COMPS,ioos:station:USF.COMPS:SHP:1,2015-02-01T16:24:00Z,30.0600,-84.2910,82.68,1111122 
COMPS,ioos:station:USF.COMPS:SHP:1,2015-02-01T16:30:00Z,30.0600,-84.2910,83.02,1111122 
COMPS,ioos:station:USF.COMPS:SHP:1,2015-02-01T16:36:00Z,30.0600,-84.2910,82.61,1111122 
COMPS,ioos:station:USF.COMPS:SHP:1,2015-02-01T16:42:00Z,30.0600,-84.2910,82.15,1111122 
COMPS,ioos:station:USF.COMPS:SHP:1,2015-02-01T16:48:00Z,30.0600,-84.2910,82.47,1111122 
COMPS,ioos:station:USF.COMPS:SHP:1,2015-02-01T16:54:00Z,30.0600,-84.2910,83.21,1111122 
COMPS,ioos:station:USF.COMPS:SHP:1,2015-02-01T17:00:00Z,30.0600,-84.2910,83.1,1111122 
COMPS,ioos:station:USF.COMPS:SHP:1,2015-02-01T17:06:00Z,30.0600,-84.2910,82.92,1111122 
COMPS,ioos:station:USF.COMPS:SHP:1,2015-02-01T17:12:00Z,30.0600,-84.2910,82.82,1111122 
COMPS,ioos:station:USF.COMPS:SHP:1,2015-02-01T17:18:00Z,30.0600,-84.2910,83.06,1111122 
COMPS,ioos:station:USF.COMPS:SHP:1,2015-02-01T17:24:00Z,30.0600,-84.2910,83.49,1111122 
COMPS,ioos:station:USF.COMPS:SHP:1,2015-02-01T17:30:00Z,30.0600,-84.2910,82.97,1111122 
COMPS,ioos:station:USF.COMPS:SHP:1,2015-02-01T17:36:00Z,30.0600,-84.2910,82.69,1111122 
COMPS,ioos:station:USF.COMPS:SHP:1,2015-02-01T17:42:00Z,30.0600,-84.2910,82.69,1111122 
COMPS,ioos:station:USF.COMPS:SHP:1,2015-02-01T17:48:00Z,30.0600,-84.2910,81.98,1111122 
COMPS,ioos:station:USF.COMPS:SHP:1,2015-02-01T17:54:00Z,30.0600,-84.2910,81.79,1111122 
COMPS,ioos:station:USF.COMPS:SHP:1,2015-02-01T18:00:00Z,30.0600,-84.2910,82.85,1111122 
COMPS,ioos:station:USF.COMPS:SHP:1,2015-02-01T18:06:00Z,30.0600,-84.2910,82.4,1111122 
COMPS,ioos:station:USF.COMPS:SHP:1,2015-02-01T18:12:00Z,30.0600,-84.2910,81.71,1111122 
COMPS,ioos:station:USF.COMPS:SHP:1,2015-02-01T18:18:00Z,30.0600,-84.2910,81.73,1111122 
COMPS,ioos:station:USF.COMPS:SHP:1,2015-02-01T18:24:00Z,30.0600,-84.2910,81.84,1111122 
COMPS,ioos:station:USF.COMPS:SHP:1,2015-02-01T18:30:00Z,30.0600,-84.2910,81.65,1111122 
COMPS,ioos:station:USF.COMPS:SHP:1,2015-02-01T18:36:00Z,30.0600,-84.2910,81.84,1111122 
COMPS,ioos:station:USF.COMPS:SHP:1,2015-02-01T18:42:00Z,30.0600,-84.2910,81.61,1111122 
COMPS,ioos:station:USF.COMPS:SHP:1,2015-02-01T18:48:00Z,30.0600,-84.2910,81.58,1111122 
COMPS,ioos:station:USF.COMPS:SHP:1,2015-02-01T18:54:00Z,30.0600,-84.2910,81.37,1111122 
COMPS,ioos:station:USF.COMPS:SHP:1,2015-02-01T19:00:00Z,30.0600,-84.2910,81.86,1111122 
COMPS,ioos:station:USF.COMPS:SHP:1,2015-02-01T19:06:00Z,30.0600,-84.2910,82.95,1111122 
COMPS,ioos:station:USF.COMPS:SHP:1,2015-02-01T19:12:00Z,30.0600,-84.2910,82.79,1111122 
COMPS,ioos:station:USF.COMPS:SHP:1,2015-02-01T19:18:00Z,30.0600,-84.2910,81.85,1111122 
COMPS,ioos:station:USF.COMPS:SHP:1,2015-02-01T19:24:00Z,30.0600,-84.2910,82.82,1111122 
COMPS,ioos:station:USF.COMPS:SHP:1,2015-02-01T19:30:00Z,30.0600,-84.2910,83.92,1111122 
COMPS,ioos:station:USF.COMPS:SHP:1,2015-02-01T19:36:00Z,30.0600,-84.2910,85.09,1111122 
COMPS,ioos:station:USF.COMPS:SHP:1,2015-02-01T19:42:00Z,30.0600,-84.2910,85.04,1111122 
COMPS,ioos:station:USF.COMPS:SHP:1,2015-02-01T19:48:00Z,30.0600,-84.2910,84.82,1111122 
COMPS,ioos:station:USF.COMPS:SHP:1,2015-02-01T19:54:00Z,30.0600,-84.2910,84.2,1111122 
COMPS,ioos:station:USF.COMPS:SHP:1,2015-02-01T20:00:00Z,30.0600,-84.2910,82.92,1111122 
COMPS,ioos:station:USF.COMPS:SHP:1,2015-02-01T20:06:00Z,30.0600,-84.2910,82.87,1111122 
COMPS,ioos:station:USF.COMPS:SHP:1,2015-02-01T20:12:00Z,30.0600,-84.2910,83.84,1111122 
COMPS,ioos:station:USF.COMPS:SHP:1,2015-02-01T20:18:00Z,30.0600,-84.2910,84.06,1111122 
COMPS,ioos:station:USF.COMPS:SHP:1,2015-02-01T20:24:00Z,30.0600,-84.2910,84.53,1111122 
COMPS,ioos:station:USF.COMPS:SHP:1,2015-02-01T20:30:00Z,30.0600,-84.2910,84.28,1111122 
COMPS,ioos:station:USF.COMPS:SHP:1,2015-02-01T20:36:00Z,30.0600,-84.2910,83.87,1111122 
COMPS,ioos:station:USF.COMPS:SHP:1,2015-02-01T20:42:00Z,30.0600,-84.2910,83.91,1111122 
COMPS,ioos:station:USF.COMPS:SHP:1,2015-02-01T20:48:00Z,30.0600,-84.2910,82.84,1111122 
COMPS,ioos:station:USF.COMPS:SHP:1,2015-02-01T20:54:00Z,30.0600,-84.2910,81.92,1111122 
COMPS,ioos:station:USF.COMPS:SHP:1,2015-02-01T21:00:00Z,30.0600,-84.2910,81.82,1111122 
COMPS,ioos:station:USF.COMPS:SHP:1,2015-02-01T21:06:00Z,30.0600,-84.2910,83.55,1111122 
COMPS,ioos:station:USF.COMPS:SHP:1,2015-02-01T21:12:00Z,30.0600,-84.2910,85.14,1111122 
COMPS,ioos:station:USF.COMPS:SHP:1,2015-02-01T21:18:00Z,30.0600,-84.2910,85.36,1111122 
COMPS,ioos:station:USF.COMPS:SHP:1,2015-02-01T21:24:00Z,30.0600,-84.2910,85.77,1111122 
COMPS,ioos:station:USF.COMPS:SHP:1,2015-02-01T21:30:00Z,30.0600,-84.2910,85.92,1111122 
COMPS,ioos:station:USF.COMPS:SHP:1,2015-02-01T21:36:00Z,30.0600,-84.2910,85.65,1111122 
COMPS,ioos:station:USF.COMPS:SHP:1,2015-02-01T21:42:00Z,30.0600,-84.2910,85.75,1111122 
COMPS,ioos:station:USF.COMPS:SHP:1,2015-02-01T21:48:00Z,30.0600,-84.2910,85.61,1111122 
COMPS,ioos:station:USF.COMPS:SHP:1,2015-02-01T21:54:00Z,30.0600,-84.2910,85.75,1111122 
COMPS,ioos:station:USF.COMPS:SHP:1,2015-02-01T22:00:00Z,30.0600,-84.2910,85.65,1111122 
COMPS,ioos:station:USF.COMPS:SHP:1,2015-02-01T22:06:00Z,30.0600,-84.2910,85.89,1111122 
COMPS,ioos:station:USF.COMPS:SHP:1,2015-02-01T22:12:00Z,30.0600,-84.2910,86.6,1111122 
COMPS,ioos:station:USF.COMPS:SHP:1,2015-02-01T22:18:00Z,30.0600,-84.2910,86.21,1111122 
COMPS,ioos:station:USF.COMPS:SHP:1,2015-02-01T22:24:00Z,30.0600,-84.2910,85.85,1111122 
COMPS,ioos:station:USF.COMPS:SHP:1,2015-02-01T22:30:00Z,30.0600,-84.2910,86.05,1111122 
COMPS,ioos:station:USF.COMPS:SHP:1,2015-02-01T22:36:00Z,30.0600,-84.2910,86.08,1111122 
COMPS,ioos:station:USF.COMPS:SHP:1,2015-02-01T22:42:00Z,30.0600,-84.2910,86.26,1111122 
COMPS,ioos:station:USF.COMPS:SHP:1,2015-02-01T22:48:00Z,30.0600,-84.2910,86.37,1111122 
COMPS,ioos:station:USF.COMPS:SHP:1,2015-02-01T22:54:00Z,30.0600,-84.2910,86.64,1111122 
COMPS,ioos:station:USF.COMPS:SHP:1,2015-02-01T23:00:00Z,30.0600,-84.2910,87.28,1111122 
COMPS,ioos:station:USF.COMPS:SHP:1,2015-02-01T23:06:00Z,30.0600,-84.2910,87.46,1111122 
COMPS,ioos:station:USF.COMPS:SHP:1,2015-02-01T23:12:00Z,30.0600,-84.2910,87.39,1111122 
COMPS,ioos:station:USF.COMPS:SHP:1,2015-02-01T23:18:00Z,30.0600,-84.2910,87.26,1111122 
COMPS,ioos:station:USF.COMPS:SHP:1,2015-02-01T23:24:00Z,30.0600,-84.2910,86.85,1111122 
COMPS,ioos:station:USF.COMPS:SHP:1,2015-02-01T23:30:00Z,30.0600,-84.2910,86.84,1111122 
COMPS,ioos:station:USF.COMPS:SHP:1,2015-02-01T23:36:00Z,30.0600,-84.2910,87.06,1111122 
COMPS,ioos:station:USF.COMPS:SHP:1,2015-02-01T23:42:00Z,30.0600,-84.2910,87.76,1111122 
COMPS,ioos:station:USF.COMPS:SHP:1,2015-02-01T23:48:00Z,30.0600,-84.2910,88.08,1111122 
COMPS,ioos:station:USF.COMPS:SHP:1,2015-02-01T23:54:00Z,30.0600,-84.2910,88.31,1111122 
COMPS,ioos:station:USF.COMPS:SHP:1,2015-02-02T00:00:00Z,30.0600,-84.2910,88.71,1111122 
COMPS,ioos:station:USF.COMPS:SHP:1,2015-02-02T00:06:00Z,30.0600,-84.2910,89.1,1111122 
COMPS,ioos:station:USF.COMPS:SHP:1,2015-02-02T00:12:00Z,30.0600,-84.2910,89.06,1111122 
COMPS,ioos:station:USF.COMPS:SHP:1,2015-02-02T00:18:00Z,30.0600,-84.2910,88.65,1111122 
COMPS,ioos:station:USF.COMPS:SHP:1,2015-02-02T00:24:00Z,30.0600,-84.2910,88.93,1111122 
COMPS,ioos:station:USF.COMPS:SHP:1,2015-02-02T00:30:00Z,30.0600,-84.2910,89.02,1111122 
COMPS,ioos:station:USF.COMPS:SHP:1,2015-02-02T00:36:00Z,30.0600,-84.2910,88.99,1111122 
COMPS,ioos:station:USF.COMPS:SHP:1,2015-02-02T00:42:00Z,30.0600,-84.2910,88.84,1111122 
COMPS,ioos:station:USF.COMPS:SHP:1,2015-02-02T00:48:00Z,30.0600,-84.2910,88.91,1111122 
COMPS,ioos:station:USF.COMPS:SHP:1,2015-02-02T00:54:00Z,30.0600,-84.2910,88.8,1111122 
COMPS,ioos:station:USF.COMPS:SHP:1,2015-02-02T01:00:00Z,30.0600,-84.2910,89.0,1111122 
COMPS,ioos:station:USF.COMPS:SHP:1,2015-02-02T01:06:00Z,30.0600,-84.2910,89.56,1111122 
COMPS,ioos:station:USF.COMPS:SHP:1,2015-02-02T01:12:00Z,30.0600,-84.2910,90.22,1111122 
COMPS,ioos:station:USF.COMPS:SHP:1,2015-02-02T01:18:00Z,30.0600,-84.2910,90.27,1111122 
COMPS,ioos:station:USF.COMPS:SHP:1,2015-02-02T01:24:00Z,30.0600,-84.2910,89.88,1111122 
COMPS,ioos:station:USF.COMPS:SHP:1,2015-02-02T01:30:00Z,30.0600,-84.2910,89.73,1111122 
COMPS,ioos:station:USF.COMPS:SHP:1,2015-02-02T01:36:00Z,30.0600,-84.2910,89.55,1111122 
COMPS,ioos:station:USF.COMPS:SHP:1,2015-02-02T01:42:00Z,30.0600,-84.2910,89.54,1111122 
COMPS,ioos:station:USF.COMPS:SHP:1,2015-02-02T01:48:00Z,30.0600,-84.2910,89.92,1111122 
COMPS,ioos:station:USF.COMPS:SHP:1,2015-02-02T01:54:00Z,30.0600,-84.2910,90.49,1111122 
COMPS,ioos:station:USF.COMPS:SHP:1,2015-02-02T02:00:00Z,30.0600,-84.2910,90.8,1111122 
COMPS,ioos:station:USF.COMPS:SHP:1,2015-02-02T02:06:00Z,30.0600,-84.2910,90.67,1111122 
COMPS,ioos:station:USF.COMPS:SHP:1,2015-02-02T02:12:00Z,30.0600,-84.2910,90.66,1111122 
COMPS,ioos:station:USF.COMPS:SHP:1,2015-02-02T02:18:00Z,30.0600,-84.2910,90.84,1111122 
COMPS,ioos:station:USF.COMPS:SHP:1,2015-02-02T02:24:00Z,30.0600,-84.2910,91.38,1111122 
COMPS,ioos:station:USF.COMPS:SHP:1,2015-02-02T02:30:00Z,30.0600,-84.2910,92.17,1111122 
COMPS,ioos:station:USF.COMPS:SHP:1,2015-02-02T02:36:00Z,30.0600,-84.2910,92.62,1111122 
COMPS,ioos:station:USF.COMPS:SHP:1,2015-02-02T02:42:00Z,30.0600,-84.2910,92.6,1111122 
COMPS,ioos:station:USF.COMPS:SHP:1,2015-02-02T02:48:00Z,30.0600,-84.2910,93.05,1111122 
COMPS,ioos:station:USF.COMPS:SHP:1,2015-02-02T02:54:00Z,30.0600,-84.2910,93.93,1111122 
COMPS,ioos:station:USF.COMPS:SHP:1,2015-02-02T03:00:00Z,30.0600,-84.2910,94.04,1111122 
COMPS,ioos:station:USF.COMPS:SHP:1,2015-02-02T03:06:00Z,30.0600,-84.2910,93.98,1111122 